GW4199 Weather Reports


Display with metric or nautical units.
time (UTC)temp
F
wind
direction
speed
MPH
gust
MPH
rain 1hr
in
rain 24hr
in
rain mn
in
humidity
%
barometer
mb
20260503191007 63 186 10.0 14.0 0.00 0.06 0.00 57 1018.6
20260503190503 63 174 10.0 15.0 0.00 0.07 0.00 60 1018.7
20260503190004 62 135 11.0 15.0 0.00 0.07 0.00 60 1018.8
20260503185504 63 132 10.0 14.0 0.00 0.08 0.00 59 1018.8
20260503185003 63 105 9.0 13.0 0.00 0.08 0.00 60 1018.8
20260503184505 63 117 10.0 14.0 0.00 0.09 0.00 59 1018.8
20260503184003 63 150 10.0 16.0 0.00 0.09 0.00 57 1018.8
20260503183503 63 107 10.0 16.0 0.00 0.10 0.00 59 1018.9
20260503183010 63 150 12.0 16.0 0.00 0.10 0.00 59 1019.1
20260503182504 63 129 11.0 16.0 0.00 0.10 0.00 59 1019.2
20260503182008 63 150 10.0 16.0 0.00 0.10 0.00 59 1019.2
20260503181512 63 155 11.0 14.0 0.00 0.10 0.00 57 1019.2
20260503181009 63 142 8.0 14.0 0.00 0.10 0.00 56 1019.2
20260503180506 63 144 10.0 14.0 0.00 0.10 0.00 60 1019.3
20260503180016 62 125 10.0 14.0 0.00 0.10 0.00 58 1019.4
20260503175502 62 138 9.0 13.0 0.00 0.10 0.00 58 1019.3
20260503175003 63 110 10.0 13.0 0.00 0.10 0.00 59 1019.3
20260503174503 63 95 10.0 13.0 0.00 0.10 0.00 58 1019.2
20260503174003 62 100 9.0 13.0 0.00 0.11 0.00 59 1019.2
20260503173507 62 114 9.0 13.0 0.00 0.11 0.00 59 1019.3
20260503173015 62 124 8.0 12.0 0.00 0.12 0.00 60 1019.4
20260503172504 63 128 8.0 12.0 0.00 0.13 0.00 59 1019.5
20260503172003 62 119 7.0 13.0 0.00 0.15 0.00 59 1019.5
20260503171508 62 117 8.0 13.0 0.00 0.16 0.00 59 1019.5
20260503171003 63 136 8.0 14.0 0.00 0.18 0.00 59 1019.5
20260503170504 62 120 9.0 14.0 0.00 0.19 0.00 58 1019.6
20260503151003 61 11 7.0 12.0 0.00 0.30 0.00 65 1019.8
20260503150503 61 51 7.0 13.0 0.00 0.31 0.00 65 1019.8
20260503131006 58 20 9.0 13.0 0.00 0.84 0.00 84 1019.2
20260503130507 58 28 9.0 13.0 0.00 0.84 0.00 85 1019.2
20260503110509 52 35 4.0 8.0 0.00 0.99 0.00 91 1018.0
20260503090510 52 13 6.0 9.0 0.00 1.19 0.00 92 1016.5
20260503081541 52 4 6.0 8.0 0.00 1.25 0.00 92 1016.3
20260503081010 53 349 5.0 8.0 0.00 1.26 0.00 92 1016.2
20260503080442 53 351 6.0 9.0 0.00 1.26 0.00 92 1016.3
20260503072943 53 13 6.0 9.0 0.00 1.30 0.00 92 1015.8
20260503072445 53 5 6.0 10.0 0.00 1.30 0.00 92 1015.7
20260503071943 53 356 5.0 10.0 0.00 1.30 0.00 92 1015.8
20260503071442 53 347 7.0 10.0 0.00 1.30 0.00 92 1015.8
20260503070942 53 23 6.0 12.0 0.00 1.31 0.00 93 1015.8
20260503070441 53 349 8.0 12.0 0.00 1.31 0.00 93 1015.7
20260503054942 53 4 9.0 12.0 0.00 1.34 0.00 93 1015.4
20260503054442 53 333 7.0 12.0 0.00 1.34 0.00 94 1015.4
20260503053941 53 333 9.0 13.0 0.00 1.34 0.00 94 1015.5
20260503053441 53 327 8.0 13.0 0.00 1.34 0.00 94 1015.5
20260503052943 53 7 10.0 13.0 0.00 1.34 0.00 93 1015.4
20260503052442 53 9 7.0 16.0 0.00 1.34 0.00 94 1015.4
20260503051942 53 18 10.0 16.0 0.00 1.34 0.00 93 1015.3
20260503051442 54 1 9.0 15.0 0.00 1.34 0.00 93 1015.4
20260503050942 54 33 10.0 16.0 0.00 1.34 0.00 93 1015.4
20260503050443 54 18 9.0 16.0 0.00 1.34 0.00 93 1015.4
20260503045943 54 333 10.0 14.0 0.00 1.34 0.00 93 1015.4
20260503045445 54 352 9.0 14.0 0.00 1.34 0.00 93 1015.3
20260503044945 54 13 10.0 14.0 0.00 1.34 0.00 93 1015.1
20260503044443 54 359 9.0 14.0 0.00 1.34 0.00 92 1015.0
20260503043942 54 347 10.0 15.0 0.00 1.34 0.00 92 1014.9
20260503043443 54 21 8.0 16.0 0.00 1.34 0.00 93 1015.1
20260503042944 54 24 11.0 17.0 0.00 1.34 0.00 92 1015.1
20260503042442 54 13 11.0 17.0 0.00 1.34 0.00 92 1015.1
20260503041941 55 8 13.0 18.0 0.00 1.34 0.00 92 1015.0
20260503041443 55 7 9.0 18.0 0.00 1.34 0.00 93 1014.9
20260503040942 55 8 11.0 18.0 0.00 1.34 0.00 92 1014.8
20260503040441 55 17 9.0 14.0 0.00 1.34 0.00 93 1014.8
20260503035942 55 27 9.0 14.0 0.00 1.34 0.00 93 1014.6
20260503035443 55 20 10.0 14.0 0.00 1.34 1.34 92 1014.7
20260503034944 56 12 11.0 16.0 0.00 1.34 1.34 92 1014.6
20260503034443 56 331 11.0 16.0 0.00 1.34 1.34 92 1014.6
20260503033944 56 337 12.0 16.0 0.00 1.34 1.34 92 1014.4
20260503033443 56 326 9.0 13.0 0.00 1.34 1.34 93 1014.2
20260503032945 56 323 8.0 14.0 0.00 1.34 1.34 93 1014.2
20260503032446 56 328 9.0 14.0 0.00 1.34 1.34 94 1014.1
20260503031943 56 4 10.0 13.0 0.00 1.34 1.34 93 1014.1
20260503031446 56 337 9.0 12.0 0.00 1.34 1.34 93 1014.0
20260503030941 56 347 9.0 12.0 0.00 1.34 1.34 93 1013.9
20260503030444 56 331 9.0 13.0 0.00 1.34 1.34 94 1013.9
20260503025942 56 328 8.0 13.0 0.00 1.34 1.34 93 1013.9
20260503025441 56 340 8.0 12.0 0.00 1.35 1.34 93 1013.9
20260503024942 56 335 8.0 13.0 0.00 1.35 1.34 93 1013.9
20260503024443 56 347 7.0 14.0 0.00 1.35 1.34 94 1013.8
20260503023943 56 19 10.0 14.0 0.00 1.35 1.34 93 1013.8
20260503023442 56 338 9.0 14.0 0.00 1.35 1.34 93 1013.7
20260503022944 56 14 9.0 14.0 0.00 1.35 1.34 93 1013.5
20260503022444 56 335 10.0 14.0 0.00 1.35 1.34 93 1013.3
20260503021943 56 346 8.0 12.0 0.00 1.35 1.34 93 1013.3
20260503021444 56 340 8.0 13.0 0.00 1.35 1.34 94 1013.2
20260503020945 56 340 9.0 13.0 0.00 1.35 1.34 94 1013.1
20260503020444 56 342 9.0 13.0 0.00 1.35 1.34 94 1013.1
20260503015945 56 26 10.0 13.0 0.00 1.35 1.34 94 1013.0
20260503015444 56 26 9.0 14.0 0.00 1.35 1.34 94 1012.9
20260503014944 56 20 11.0 14.0 0.00 1.35 1.34 94 1012.7
20260503014442 56 27 9.0 15.0 0.00 1.35 1.34 94 1012.7
20260503013941 56 8 9.0 15.0 0.00 1.35 1.34 95 1012.5
20260503013442 56 4 11.0 15.0 0.00 1.35 1.34 94 1012.6
20260503012946 56 347 10.0 14.0 0.00 1.35 1.34 94 1012.7
20260503012443 56 336 9.0 14.0 0.00 1.35 1.34 94 1012.7
20260503011942 56 341 9.0 16.0 0.00 1.35 1.34 94 1012.8
20260503011444 56 349 10.0 16.0 0.00 1.35 1.34 94 1012.9
20260503010943 56 1 9.0 14.0 0.00 1.35 1.34 94 1012.7
20260503010445 56 32 7.0 15.0 0.00 1.35 1.34 95 1012.5
20260503005944 56 17 10.0 15.0 0.00 1.35 1.34 95 1012.7
20260503005444 56 9 10.0 15.0 0.00 1.35 1.34 94 1012.5
20260503004944 56 34 11.0 15.0 0.00 1.35 1.34 95 1012.5
20260503004447 56 4 10.0 14.0 0.00 1.35 1.34 95 1012.3
20260503003943 56 32 10.0 14.0 0.00 1.35 1.34 95 1012.1
20260503003444 56 11 10.0 16.0 0.00 1.36 1.34 95 1011.8
20260503002942 56 18 10.0 16.0 0.00 1.36 1.34 95 1011.8
20260503002442 56 4 10.0 16.0 0.00 1.36 1.34 96 1011.8
20260503001942 56 32 9.0 16.0 0.00 1.36 1.34 97 1011.6
20260503001443 56 339 12.0 16.0 0.00 1.36 1.34 96 1011.8
20260503000942 56 330 10.0 14.0 0.00 1.36 1.34 96 1011.8
20260503000442 56 349 8.0 13.0 0.00 1.36 1.34 97 1011.6
20260502235945 56 336 7.0 12.0 0.00 1.36 1.34 97 1011.7
20260502235443 56 15 8.0 16.0 0.00 1.36 1.34 97 1011.6
20260502234943 56 351 10.0 16.0 0.00 1.37 1.34 97 1011.7
20260502234446 56 13 12.0 16.0 0.00 1.37 1.34 97 1011.5
20260502233944 56 358 12.0 15.0 0.00 1.37 1.34 97 1011.4
20260502233444 56 349 10.0 14.0 0.00 1.37 1.34 97 1011.4
20260502232944 56 37 7.0 15.0 0.00 1.37 1.34 97 1011.1
20260502232443 56 320 10.0 16.0 0.00 1.37 1.34 97 1011.2
20260502231944 56 29 13.0 16.0 0.00 1.37 1.34 97 1011.0
20260502231445 56 13 11.0 17.0 0.00 1.37 1.34 97 1010.8
20260502230945 56 13 12.0 18.0 0.00 1.38 1.34 97 1010.9
20260502230443 56 18 11.0 18.0 0.00 1.38 1.34 97 1010.9
20260502225944 56 31 14.0 18.0 0.00 1.39 1.34 97 1010.9
20260502225442 56 18 11.0 18.0 0.00 1.39 1.34 97 1010.8
20260502224945 56 27 11.0 15.0 0.00 1.39 1.34 97 1010.7
20260502224444 56 34 11.0 19.0 0.00 1.40 1.34 97 1010.9
20260502223943 56 30 12.0 19.0 0.00 1.41 1.34 97 1011.0
20260502223443 56 35 13.0 19.0 0.00 1.41 1.34 97 1010.9
20260502222945 56 27 10.0 18.0 0.00 1.41 1.34 97 1010.9
20260502222443 56 16 13.0 18.0 0.00 1.41 1.34 97 1010.8
20260502221944 56 13 11.0 20.0 0.00 1.41 1.34 97 1010.7
20260502221444 56 20 13.0 20.0 0.00 1.41 1.34 97 1010.7
20260502220946 56 4 10.0 15.0 0.00 1.41 1.34 97 1010.6
20260502220446 56 25 10.0 16.0 0.00 1.41 1.34 97 1010.6
20260502215947 56 18 10.0 16.0 0.00 1.41 1.34 97 1010.5
20260502215445 56 27 9.0 15.0 0.00 1.42 1.34 97 1010.3
20260502214943 56 27 10.0 18.0 0.00 1.43 1.34 97 1010.3
20260502214443 56 34 11.0 20.0 0.00 1.43 1.34 97 1010.3
20260502213943 56 18 13.0 20.0 0.00 1.44 1.34 97 1010.3
20260502213443 56 22 12.0 18.0 0.00 1.44 1.34 97 1010.2
20260502212944 56 343 11.0 18.0 0.00 1.44 1.34 97 1010.0
20260502212443 56 16 13.0 22.0 0.00 1.44 1.34 97 1009.8
20260502211943 56 30 13.0 22.0 0.00 1.44 1.34 97 1009.8
20260502211444 56 4 13.0 19.0 0.00 1.44 1.34 97 1009.7
20260502210943 56 17 15.0 21.0 0.00 1.44 1.34 97 1009.7
20260502210443 56 27 16.0 22.0 0.01 1.44 1.34 97 1009.7
20260502205944 57 17 13.0 22.0 0.01 1.45 1.34 97 1009.7
20260502205444 57 298 13.0 21.0 0.01 1.45 1.34 97 1009.7
20260502204944 57 28 14.0 21.0 0.01 1.45 1.34 97 1009.4
20260502204446 57 19 14.0 21.0 0.02 1.45 1.34 97 1009.5
20260502203945 57 30 14.0 22.0 0.02 1.45 1.34 97 1009.3
20260502203442 57 18 16.0 22.0 0.02 1.45 1.34 97 1009.5
20260502202944 57 347 15.0 21.0 0.03 1.45 1.34 97 1009.5
20260502202444 57 36 15.0 19.0 0.03 1.45 1.34 97 1009.3
20260502201943 57 32 14.0 18.0 0.04 1.45 1.34 97 1009.3
20260502201444 57 28 12.0 21.0 0.05 1.45 1.34 97 1009.3
20260502200944 57 8 15.0 21.0 0.06 1.45 1.34 97 1009.3
20260502200446 58 29 13.0 18.0 0.06 1.44 1.33 97 1009.5
20260502195945 58 27 11.0 18.0 0.06 1.44 1.33 97 1009.4
20260502195443 58 27 13.0 19.0 0.07 1.44 1.33 97 1009.2
20260502194945 58 18 14.0 19.0 0.07 1.45 1.33 97 1009.2
20260502194445 58 34 13.0 18.0 0.07 1.45 1.32 97 1009.3
20260502193946 58 37 14.0 18.0 0.07 1.45 1.32 97 1009.4
20260502193445 58 22 15.0 22.0 0.08 1.45 1.32 97 1009.5
20260502192947 58 29 16.0 22.0 0.07 1.44 1.31 97 1009.3
20260502192445 59 19 14.0 20.0 0.07 1.44 1.31 96 1009.3
20260502191945 60 41 7.0 13.0 0.06 1.43 1.30 98 1009.3
20260502191443 60 46 9.0 13.0 0.05 1.42 1.29 97 1009.3